Vorticity
nan nan nan nan nan nan nan nan nan nan nan nan nan nan nan nan nan nan nan nan nan nan nan nan nan nan nan nan nan nan nan nan nan nan nan nan nan nan nan nan nan nan nan
nan 11 10 9 8 8 9 10 9 6 6 8 7 8 10 10 9 7 7 12 12 9 7 9 8 8 9 9 10 10 10 10 11 9 8 9 9 9 7 8 7 6 nan
nan 10 10 9 8 8 9 10 9 9 8 7 6 6 7 9 10 9 8 8 9 8 8 8 8 6 6 7 9 9 10 10 10 12 10 8 9 8 10 8 8 8 nan
nan 9 9 9 9 9 9 9 10 10 10 9 8 8 7 6 6 7 8 8 8 9 8 6 7 6 6 5 7 7 7 8 8 8 8 9 9 9 7 8 11 9 nan
nan 8 9 9 10 11 11 9 9 9 9 10 9 8 8 8 10 10 7 7 7 8 7 7 8 10 9 5 5 6 6 7 6 8 8 8 8 10 9 8 8 8 nan
nan 12 14 15 14 12 10 11 10 9 9 10 10 10 7 9 13 10 7 7 7 6 7 10 12 13 12 10 6 4 5 4 4 3 7 8 6 6 8 8 8 8 nan
nan 12 12 14 14 17 21 17 15 12 11 11 10 10 10 17 17 10 6 5 10 11 10 10 10 10 12 11 11 9 9 8 6 8 8 7 10 14 13 13 12 10 nan
nan 7 10 12 11 12 14 13 14 20 22 20 17 17 12 4 16 31 21 10 8 10 12 13 14 12 15 15 11 12 12 13 21 23 24 18 18 21 21 18 14 13 nan
nan 9 11 11 11 12 10 10 11 13 16 15 15 21 20 3 8 22 26 20 13 15 14 12 17 16 12 21 23 16 12 8 15 19 19 19 18 17 24 19 15 15 nan
nan 11 12 12 12 11 11 12 14 14 14 9 9 8 9 6 7 21 24 22 17 14 14 10 13 23 22 25 22 15 16 20 10 5 1 3 6 5 12 22 25 20 nan
nan 12 11 11 11 11 13 12 14 13 11 9 8 7 4 7 9 14 27 30 21 13 8 7 6 15 22 21 24 28 27 20 9 9 9 7 5 9 8 11 16 21 nan
nan 10 10 12 12 11 11 12 12 12 10 10 9 9 7 3 4 11 18 23 22 15 10 13 9 6 12 15 18 19 20 14 10 9 9 9 10 9 9 9 10 14 nan
nan 9 10 11 11 11 11 12 10 10 10 10 10 10 11 10 2 1 5 8 14 14 11 9 9 5 7 6 9 10 10 11 11 10 10 9 10 11 11 7 6 6 nan
nan 9 8 9 11 12 12 10 12 12 12 11 10 10 10 11 12 10 7 4 5 10 10 6 6 5 5 7 4 7 10 12 12 10 10 9 9 9 10 9 11 8 nan
nan 10 9 7 7 7 9 14 16 16 20 18 15 12 11 13 14 17 19 17 13 12 9 8 8 7 7 8 8 9 11 11 11 10 10 10 10 9 9 11 11 12 nan
nan 10 10 10 9 8 7 2 5 12 16 17 18 17 15 14 15 14 16 17 16 13 11 10 10 10 10 10 9 8 9 10 11 11 10 10 10 11 10 11 10 10 nan
nan 13 11 11 11 11 10 9 0 -4 -2 6 11 15 18 13 10 9 7 6 8 12 10 10 9 9 9 10 10 10 9 9 11 11 11 11 11 10 10 11 11 10 nan
nan 12 14 11 11 11 11 11 10 9 5 -1 0 9 9 12 12 11 10 5 4 8 11 10 10 10 10 10 10 10 10 11 10 10 10 11 11 11 11 10 11 12 nan
nan 12 12 11 11 11 11 10 11 11 11 11 7 3 2 5 6 8 13 13 10 9 10 10 10 11 11 11 11 10 10 10 11 11 10 10 11 11 11 11 9 9 nan
nan 12 14 12 11 10 11 11 10 10 10 10 10 10 13 8 5 6 8 12 11 10 11 10 10 11 11 10 10 10 10 10 10 10 10 10 10 11 10 10 10 10 nan
nan 8 11 12 11 11 11 11 11 11 10 10 9 11 16 15 10 10 10 10 11 11 11 11 11 11 11 10 11 11 10 10 10 10 10 10 10 11 10 11 11 10 nan
nan 11 11 11 11 12 12 11 11 11 11 11 9 9 11 12 11 10 10 10 10 11 11 11 10 10 10 10 11 11 10 10 10 10 11 10 11 11 11 10 10 10 nan
nan 12 12 11 12 11 11 12 12 12 11 11 11 10 10 11 10 10 10 10 11 11 12 12 11 10 10 10 11 12 11 10 10 12 11 11 11 10 10 10 10 11 nan
nan 12 12 11 11 11 11 11 11 11 11 11 11 11 11 10 10 9 10 11 11 11 11 10 9 11 13 12 12 12 11 11 11 11 11 12 13 10 10 10 9 10 nan
nan 12 11 11 12 12 11 11 11 10 10 11 11 10 10 10 9 9 11 11 10 10 9 9 9 10 10 11 10 10 10 11 12 13 12 11 10 10 11 10 10 10 nan
nan nan nan nan nan nan nan nan nan nan nan nan nan nan nan nan nan nan nan nan nan nan nan nan nan nan nan nan nan nan nan nan nan nan nan nan nan nan nan nan nan nan nan
CAPE
2 2 5 2 0 0 0 3 6 0 0 0 1 3 1 2 5 4 2 5 5 1 8 34 25 1 0 38 73 69 72 124 112 56 37 80 24 0 0 0 0 0 0
5 6 7 5 2 0 1 1 4 3 0 0 0 1 2 1 7 10 8 6 12 11 9 5 0 0 0 5 30 27 64 62 73 119 119 109 63 38 84 7 0 0 0
6 3 4 7 3 2 0 0 2 3 3 1 4 0 0 0 3 6 6 9 0 0 0 0 0 0 0 0 0 0 16 14 65 122 98 84 67 25 27 0 0 0 0
4 2 2 6 2 4 1 0 0 1 1 2 1 1 3 1 0 0 0 0 1 6 29 21 0 0 0 0 0 0 0 4 29 133 110 74 135 114 109 73 120 49 26
4 5 2 1 0 0 3 1 0 0 0 0 0 1 1 2 3 3 0 0 0 0 0 4 21 8 0 0 0 0 0 0 30 91 125 141 135 170 133 81 110 78 92
9 5 3 0 0 1 0 6 3 1 0 0 0 0 0 0 0 0 0 2 0 0 1 2 1 0 0 0 0 0 0 10 43 38 35 37 14 36 45 40 36 35 31
0 0 0 0 1 2 2 0 0 1 1 1 0 0 0 0 0 0 0 0 3 3 2 3 2 0 0 0 0 0 0 0 0 9 4 1 1 1 23 17 18 18 18
2 0 0 0 0 0 0 1 1 1 2 1 0 0 0 1 0 0 0 0 0 0 0 1 5 3 2 0 0 1 0 0 0 0 0 0 0 1 0 1 6 7 0
0 1 0 0 0 0 1 1 1 2 1 2 1 1 1 1 0 0 0 0 0 0 0 0 0 0 0 1 0 0 0 0 0 0 0 0 0 0 0 0 0 0 0
1 1 0 0 1 1 2 2 2 2 2 3 1 2 1 1 1 0 0 0 0 0 0 1 0 0 0 0 0 0 0 0 0 0 0 0 1 2 1 2 0 0 0
2 4 3 2 2 3 2 2 2 2 2 3 2 2 2 2 2 1 0 2 1 1 1 1 2 0 1 1 0 0 0 0 1 0 1 1 1 2 4 3 2 0 1
0 1 3 4 3 3 4 2 1 2 2 3 2 3 5 5 4 4 2 1 0 2 3 2 3 5 3 3 2 1 1 0 1 0 0 0 2 5 4 3 3 4 6
0 0 1 2 2 3 4 4 4 4 5 4 4 5 6 6 7 4 3 2 2 8 8 5 3 2 1 4 1 0 0 1 0 0 4 2 3 5 5 6 6 4 6
1 1 1 1 1 1 4 6 7 8 7 9 8 7 7 7 7 6 7 9 4 7 3 8 5 4 3 6 10 11 11 8 6 5 6 6 7 6 9 8 7 7 1
2 3 3 2 1 3 8 11 11 9 8 9 10 6 9 12 12 5 5 7 5 3 3 4 5 6 6 8 7 13 12 11 11 10 7 6 4 2 2 2 0 0 0
3 5 6 5 4 2 2 6 5 7 5 5 3 8 17 8 6 3 2 1 0 0 3 5 7 8 6 6 7 8 7 5 7 5 3 0 0 0 0 0 0 0 0
4 5 3 2 2 2 3 3 4 4 4 8 7 5 4 4 4 3 1 0 0 0 2 6 8 9 8 6 4 3 2 2 0 1 1 1 0 0 0 0 0 0 0
2 1 3 3 3 3 3 3 4 4 4 4 2 9 6 3 3 1 0 0 1 1 3 5 6 6 2 0 0 0 0 0 0 0 1 1 2 0 0 0 0 0 0
4 5 5 6 4 3 3 3 3 3 3 4 3 1 2 3 2 1 0 3 4 4 4 4 5 3 2 1 2 1 0 0 0 1 0 0 2 0 0 0 0 0 0
3 1 1 5 4 4 3 2 1 1 1 2 2 2 2 0 1 2 3 5 4 4 3 1 1 2 3 2 3 2 1 1 0 0 1 1 2 1 0 0 0 1 0
4 2 0 2 2 2 2 2 2 1 1 1 2 2 0 0 1 2 2 3 4 3 5 3 4 4 2 1 0 0 0 0 0 0 1 0 1 0 0 1 0 0 0
3 3 2 2 3 2 3 2 3 2 2 2 2 0 0 2 1 1 1 2 4 3 3 3 2 2 1 0 0 0 0 0 0 0 0 0 0 0 0 0 0 0 0
2 2 2 2 2 0 2 1 1 0 0 0 0 0 1 1 2 2 2 2 2 2 3 2 2 0 0 1 1 1 0 0 0 0 0 0 0 0 1 1 0 0 0
1 1 0 1 1 0 1 1 0 0 0 1 1 1 1 2 3 1 2 2 2 3 2 1 1 0 0 1 2 2 1 1 0 0 0 0 0 0 0 0 0 0 0
1 1 0 0 0 1 1 0 1 1 1 1 1 1 1 1 1 2 2 1 1 2 1 0 1 0 0 0 0 0 0 0 0 0 0 0 0 0 0 0 0 0 0
0 0 0 1 1 1 1 1 1 1 1 0 0 0 0 0 0 1 1 0 0 0 0 0 0 0 0 0 0 0 0 0 0 0 0 0 0 0 0 0 0 1 1